• MPC Preparation (Info)

  • MPEC 2023-G27 : 2023 GE

    The following Minor Planet Electronic Circular may be linked-to from your own Web pages, but must not otherwise be redistributed electronically.

    A form allowing access to any MPEC is at the bottom of this page.


    Read MPEC 2023-G26 Read MPEC 2023-G28


    M.P.E.C. 2023-G27                                 Issued 2023 April 3, 20:44 UT
    
         The Minor Planet Electronic Circulars contain information on unusual
             minor planets, routine data on comets and natural satellites,
             and occasional editorial announcements.  They are published
        on behalf of Division F of the International Astronomical Union by the
              Minor Planet Center, Smithsonian Astrophysical Observatory,
                              Cambridge, MA 02138, U.S.A.
    			  
                 Prepared using the Tamkin Foundation Computer Network
    
                                  MPC@CFA.HARVARD.EDU
                URL https://www.minorplanetcenter.net/    ISSN 1523-6714
    
                                     2023 GE                                 
    
    
    Observations:
         K23G00E*1C2023 04 01.22563413 30 15.008+32 46 13.91         20.76GVEG027G96
         K23G00E 1C2023 04 01.23079713 30 19.451+32 46 26.98         21.20GVEG027G96
         K23G00E 1C2023 04 01.23594913 30 23.825+32 46 38.17         20.44GVEG027G96
         K23G00E 1C2023 04 01.24111513 30 28.138+32 46 49.73         20.45GVEG027G96
         K23G00E KC2023 04 01.38229213 32 28.082+32 51 20.30         20.15GVEG027I52
         K23G00E KC2023 04 01.38339513 32 29.072+32 51 21.38         20.80GVEG027I52
         K23G00E KC2023 04 01.38449913 32 29.994+32 51 22.82         20.53GVEG027I52
         K23G00E KC2023 04 01.38562313 32 31.024+32 51 24.62         21.25GVEG027I52
         K23G00E KC2023 04 02.22649313 51 07.726+33 15 25.60         20.42GVEG027I52
         K23G00E KC2023 04 02.22732113 51 08.950+33 15 28.44         20.73GVEG027I52
         K23G00E KC2023 04 02.22814813 51 10.199+33 15 30.38         20.20GVEG027I52
         K23G00E KC2023 04 02.22897313 51 11.394+33 15 33.55         20.95GVEG027I52
         K23G00E BC2023 04 02.84437914 11 59.928+33 26 33.97         20.0 GVEG027J95
         K23G00E BC2023 04 02.86734714 12 56.758+33 27 19.66         19.9 GVEG027J95
    
    Observer details:
    G96 Mt. Lemmon Survey.  Observer J. B. Fazekas.  Measurers E. J. Christensen,
        D. Fay, J. B. Fazekas, D. C. Fuls, A. R. Gibbs, A. D. Grauer, H. Groeller,
        J. K. Hogan, R. A. Kowalski, S. M. Larson, G. J. Leonard, D. Rankin, R. L.
        Seaman, A. Serrano, F. C. Shelly, K. W. Wierzchos.  1.5-m reflector + 10K
        CCD.
    I52 Steward Observatory, Mt. Lemmon Station.  Observer J. K. Hogan.  Measurers
        E. J. Christensen, D. Fay, J. B. Fazekas, D. C. Fuls, A. R. Gibbs, A. D.
        Grauer, H. Groeller, J. K. Hogan, R. A. Kowalski, S. M. Larson, G. J.
        Leonard, D. Rankin, R. L. Seaman, A. Serrano, F. C. Shelly, K. W.
        Wierzchos.  1.0-m prime focus + CCD.
    J95 Great Shefford.  Observer P. Birtwhistle.  0.41-m f/6.3 Schmidt-Cassegrain
        + CCD.
    
    Orbital elements:
    2023 GE                                                  Earth MOID = 0.0032 AU
    Epoch 2023 Feb. 25.0 TT = JDT 2460000.5                 Veres                   
    M 321.49658              (2000.0)            P               Q                  
    n   0.50418797     Peri.  226.13031     -0.46417472     +0.88457715             
    a   1.5634154      Node    16.38456     -0.75944024     -0.37105721             
    e   0.4217847      Incl.    9.27071     -0.45584247     -0.28255940             
    P   1.95           H   27.50          G   0.15           U   7                  
    Residuals in seconds of arc
    230401 G96  0.9-  0.5-    230401 I52  0.2+  0.1+    230402 I52  0.2-  0.2+
    230401 G96  0.1+  0.6+    230401 I52  0.4-  0.1-    230402 I52 (0.9-  1.1+)
    230401 G96  0.5+  0.1-    230401 I52  0.2+  0.0     230402 J95  0.1-  0.4+
    230401 G96  0.0   0.4-    230402 I52  0.3+  0.2-    230402 J95  0.1+  0.5-
    230401 I52  0.1-  0.7+    230402 I52  0.1-  0.4+
    
    Ephemeris:
    2023 GE                  a,e,i = 1.56, 0.42, 9                   q = 0.9040
    Date    TT    R. A. (2000) Decl.     Delta      r    Elong.  Phase     V
    2023 03 04    12 29 43.9 +27 25 31   0.2153  1.1823   149.8    25.0    25.7
    ...
    2023 03 19    12 40 43.2 +29 47 56   0.1104  1.0913   148.8    28.2    24.2
    ...
    2023 03 27    12 53 58.1 +31 11 02   0.05863 1.0465   145.6    32.6    22.8
    ...
    2023 04 02    13 44 58.4 +33 09 38   0.02109 1.0154   139.5    39.8    20.7
    2023 04 03    14 18 20.7 +33 34 07   0.01514 1.0104   135.7    43.7    20.1
    2023 04 04    15 31 17.2 +32 28 19   0.0096921.0056   126.2    53.4    19.4
    ...
    2023 04 10    23 40 17.3 -26 26 41   0.03108 0.9782    40.7   138.1    26.5
    ...
    2023 04 18    00 11 53.7 -28 14 53   0.08175 0.9472    44.5   132.1    27.9
    ...
    2023 05 03    00 28 41.9 -26 37 44   0.1790  0.9101    52.5   118.5    28.3
    
    M. P. C. Staff               (C) Copyright 2023 MPC           M.P.E.C. 2023-G27
    


    Read MPEC 2023-G26 Read MPEC 2023-G28


    MPEC number:

    Enter an MPEC number in one of the following forms:

    • 1997-B01 (the full form)
    • J97B01 (the packed version of the full form)
    • B01 (the abbreviated form)